STARLINK-37308, 68952

Orbit data source: Space-Track

STARLINK-37308, 68952 is a payload satellite owned by SpaceX/Seattle (US) in LEO that was launched on Fri, 01 May 2026 UTC via an FALCON 9 launch vehicle from the Air Force Eastern Test Range (AFETR). Payload-class satellites include a variety of spacecraft equipped with specific instruments for various scientific and technological missions. These include communications satellites like Starlink; space stations such as the ISS; scientific satellites like the Hubble; Earth observation satellites from companies like Planet Labs, Umbra, and HawkEye 360; GPS; miniature CubeSats for education and research; and military/defense satellites.

Loading next visibility...
Identifier
68952, 2026-099B
Orbit
LEO
Country
Flag of USUS
Related business
Manufacturer
SpaceX/Seattle
Mission
Operational spacecraft
Bus & Motor
STARLINK V2MO, Unknown motor
Mass
575 kg wet, ~530 kg dry
Launch date (UTC)
2026-05-01 (2 months ago)
Launch vehicle
FALCON 9
Launch site
Air Force Eastern Test Range (AFETR)
Object type
Payload
Rocket body
Debris
Shape & HBR
Unknown shape, 14.5 m
Radar Cross Section
Large (>1 m²)

Expand to show TLE details & history
Last TLE update: 16 hours ago

TLE from 16 hours ago
0 STARLINK-37308
1 68952U 26099B   26171.21950355  .00021531  00000-0  64686-3 0  9998
2 68952  53.1593 147.4351 0001107 348.4912  11.6066 15.34385257  7733
Epoch: 2026-06-20T05:16Z
TLE epoch observation values (Epoch: 2026-06-20T05:16:05.106Z)
Latitude
0.00004°
Longitude
159.97659°
Altitude
462.907 km
Speed
7.637 km/s
True Right ascension
09h 49m 44s
True Declination
0° 00' 00"
Sunlit
Object was in daylight at epoch
Visualization orbit readout
Latitude
Unknown
Longitude
Unknown
Altitude
Unknown
Speed
Unknown
Apparent Right ascension
Unknown
Apparent Declination
Unknown
Sunlit
N/A
Visualization observer readout
Local Sidereal Time
08:32:49
Azimuth
Unknown
Elevation
Unknown
Doppler factor
Unknown
Orbital elements
Apogee altitude
463.761 km
Perigee altitude
462.247 km
Semi-major axis
6,841.141 km
Eccentricity
0.00011
Inclination
53.1593°
RAAN
147.4351°
Arg. of periapsis
348.4912°
True anomaly
11.60915°
Mean anomaly
11.6066°
Eccentric anomaly
11.60788°
Mean motion
3.83575 °/min
Orbital period
93.85 mins
BSTAR
0.00064686
Loading maneuver chart data...
Computing Atmospheric mass density...
Loading historical data...
Loading historical data...
Loading historical data...
Loading historical data...
Loading historical data...
Loading historical data...
Loading historical data...

Documentation

Showing up to 5 results
|